World > North America > United States > Mississippi > Leaf

Hourly Leaf, MS Regional Weather

Feedback E-mail the Weather

Quick WX

Leaf, MS Weather Maps

°F °C°F °C
Leaf Weather Map
UTC Time: 8/15/2022, 18:59
Your Time:

Leaf, MS Regional Weather

Expires:202208151900;;091724
ASUS44 KJAN 151810
RWRMS 

MISSISSIPPI HOURLY WEATHER ROUNDUP
NATIONAL WEATHER SERVICE JACKSON MS
100 PM CDT MON AUG 15 2022

NOTE: "FAIR: INDICATES FEW OR NO CLOUDS BELOW 12,000 FEET WITH NO
SIGNIFICANT WEATHER AND/OR OBSTRUCTIONS TO VISIBILITY.


MSZ059>079-151900-
SOUTH MISSISSIPPI
  
CITY           SKY/WX    TMP DP  RH WIND       PRES   REMARKS
BROOKHAVEN     FAIR      88  88 100 W7        30.01S HX 120           
HATTIESBURG    MOSUNNY   92  75  57 W8        29.97F HX 103           
6HR MIN TEMP:  75; 6HR MAX TEMP:  92;                                

LAUREL         MOSUNNY   91  73  55 SW9       29.97F HX  99           
MCCOMB         MOSUNNY   90  73  57 VRB7      29.99F HX  98           
6HR MIN TEMP:  74; 6HR MAX TEMP:  90;                                

NATCHEZ        MOSUNNY   91  75  59 S7        30.00S HX 101           
6HR MIN TEMP:  75; 6HR MAX TEMP:  91;                                

PINE BELT      SUNNY     91  76  61 VRB6      29.99F HX 103           
6HR MIN TEMP:  74; 6HR MAX TEMP:  92;                                

$$


SKY/WX - Weather  TMP - Temperature  DP - Dew Point  RH - Humidity
WIND - Wind Direction/Speed PRES - Barometric Pressure VSB - Visibility
WCI - Wind Chill Index E13G22 Wind - East Wind 13 mph/Gusts of 22 mph

Trending Headlines

Leaf Radar Loop



Leaf Quick Facts


National Two Day Weather Forecast


E-mail the Leaf Weather Forecast

Voice your opinion or tell us about page issues...